Total_Precipitation_Accumulation
0.00 0.00 0.00 0.06 0.25 0.13 0.36 1.19 0.47 0.44 0.11 0.02 0.01 0.01 0.02 0.09 0.20 0.20 0.00 0.00 0.00 0.00 0.02 0.06 0.13 0.11 0.14 0.08 0.03 0.03 0.07 0.03 0.04 0.03 0.06 0.08 0.14 0.19 0.10 0.16 0.16 0.14 0.14 0.02 0.03 0.03 0.17 0.14 0.08
0.00 0.00 0.14 1.00 0.60 0.48 0.69 1.25 0.62 0.43 0.09 0.03 0.01 0.05 0.08 0.02 0.00 0.01 0.00 0.00 0.00 0.00 0.00 0.00 0.08 0.08 0.03 0.03 0.03 0.05 0.02 0.02 0.02 0.07 0.16 0.14 0.23 0.14 0.14 0.20 0.36 0.41 0.40 0.24 0.14 0.09 0.03 0.08 0.12
0.00 0.12 1.32 1.66 0.62 0.96 2.72 1.65 0.48 0.24 0.15 0.04 0.03 0.05 0.04 0.01 0.00 0.00 0.00 0.00 0.00 0.00 0.00 0.00 0.05 0.03 0.03 0.07 0.08 0.08 0.04 0.03 0.03 0.11 0.14 0.18 0.18 0.10 0.17 0.10 0.11 0.13 0.08 0.09 0.10 0.09 0.10 0.12 0.17
0.00 0.29 0.94 0.43 0.35 0.98 1.55 1.31 0.45 0.24 0.16 0.07 0.10 0.05 0.00 0.00 0.00 0.00 0.00 0.00 0.00 0.00 0.00 0.01 0.02 0.04 0.04 0.05 0.09 0.07 0.05 0.06 0.08 0.15 0.15 0.16 0.11 0.07 0.08 0.08 0.06 0.05 0.01 0.00 0.01 0.06 0.12 0.12 0.18
0.04 0.47 0.56 0.41 0.69 0.53 0.56 0.63 0.72 0.60 0.36 0.29 0.12 0.05 0.01 0.00 0.00 0.00 0.01 0.00 0.00 0.00 0.00 0.01 0.05 0.07 0.04 0.06 0.05 0.03 0.00 0.02 0.11 0.17 0.07 0.08 0.08 0.08 0.07 0.07 0.03 0.02 0.01 0.03 0.06 0.08 0.09 0.09 0.16
0.13 0.26 0.33 0.39 0.58 1.09 0.49 0.72 0.77 0.58 0.72 0.73 0.18 0.03 0.01 0.02 0.00 0.01 0.00 0.00 0.00 0.00 0.00 0.01 0.03 0.08 0.08 0.05 0.02 0.03 0.01 0.02 0.06 0.16 0.12 0.05 0.05 0.05 0.03 0.02 0.02 0.01 0.03 0.08 0.05 0.04 0.12 0.10 0.20
0.13 0.33 0.25 0.39 0.44 0.79 0.73 0.82 1.00 0.40 0.46 0.28 0.10 0.05 0.03 0.04 0.01 0.00 0.00 0.00 0.00 0.00 0.00 0.01 0.03 0.05 0.03 0.04 0.02 0.02 0.01 0.02 0.06 0.10 0.13 0.04 0.00 0.01 0.03 0.04 0.07 0.04 0.08 0.07 0.05 0.04 0.07 0.08 0.17
0.15 0.21 0.25 0.30 0.63 1.17 0.31 0.29 0.62 0.53 0.35 0.27 0.12 0.08 0.02 0.02 0.01 0.00 0.00 0.00 0.00 0.00 0.00 0.01 0.02 0.01 0.00 0.01 0.05 0.03 0.01 0.01 0.06 0.05 0.02 0.05 0.01 0.02 0.06 0.15 0.16 0.08 0.06 0.03 0.06 0.06 0.08 0.07 0.12
0.05 0.35 0.30 0.19 0.31 0.72 0.30 0.25 0.31 0.63 0.28 0.09 0.10 0.12 0.01 0.01 0.01 0.01 0.01 0.01 0.01 0.01 0.00 0.00 0.01 0.00 0.01 0.00 0.04 0.04 0.02 0.01 0.01 0.03 0.09 0.09 0.01 0.01 0.03 0.08 0.09 0.10 0.10 0.07 0.07 0.04 0.05 0.04 0.05
0.14 0.41 0.56 0.10 0.10 0.26 0.25 0.26 0.18 0.17 0.08 0.20 0.06 0.08 0.00 0.01 0.01 0.00 0.00 0.00 0.00 0.00 0.00 0.00 0.00 0.00 0.00 0.00 0.01 0.01 0.01 0.00 0.03 0.03 0.02 0.03 0.06 0.00 0.01 0.09 0.06 0.02 0.04 0.03 0.01 0.02 0.11 0.15 0.06
0.09 0.11 0.11 0.03 0.04 0.16 0.45 0.44 0.35 0.08 0.06 0.07 0.09 0.06 0.00 0.00 0.00 0.00 0.00 0.00 0.00 0.00 0.00 0.00 0.00 0.00 0.00 0.00 0.00 0.00 0.01 0.02 0.00 0.03 0.04 0.03 0.01 0.01 0.04 0.03 0.05 0.02 0.03 0.00 0.01 0.07 0.15 0.14 0.18
0.04 0.01 0.04 0.04 0.01 0.02 0.19 0.49 0.96 0.60 0.50 0.14 0.09 0.03 0.00 0.00 0.00 0.00 0.00 0.00 0.00 0.00 0.00 0.00 0.00 0.00 0.00 0.00 0.00 0.02 0.08 0.01 0.00 0.00 0.02 0.07 0.04 0.05 0.25 0.13 0.08 0.08 0.03 0.05 0.10 0.16 0.14 0.12 0.19
0.00 0.02 0.01 0.04 0.06 0.07 0.06 0.20 1.05 0.54 0.86 0.28 0.07 0.01 0.00 0.00 0.00 0.00 0.00 0.00 0.00 0.00 0.00 0.00 0.00 0.00 0.01 0.00 0.01 0.00 0.01 0.00 0.00 0.00 0.02 0.13 0.16 0.13 0.13 0.13 0.16 0.09 0.08 0.07 0.07 0.04 0.00 0.06 0.01
0.00 0.01 0.03 0.02 0.05 0.10 0.04 0.03 0.06 0.23 0.27 0.24 0.02 0.00 0.00 0.00 0.00 0.00 0.00 0.00 0.00 0.00 0.00 0.00 0.00 0.01 0.02 0.00 0.01 0.01 0.00 0.00 0.00 0.00 0.00 0.16 0.11 0.17 0.17 0.16 0.15 0.12 0.07 0.03 0.05 0.02 0.00 0.01 0.00
0.00 0.00 0.00 0.03 0.01 0.09 0.08 0.07 0.03 0.31 0.31 0.07 0.01 0.00 0.00 0.00 0.00 0.00 0.00 0.00 0.00 0.00 0.00 0.00 0.00 0.00 0.00 0.00 0.00 0.00 0.00 0.00 0.00 0.00 0.00 0.04 0.07 0.10 0.22 0.11 0.09 0.05 0.06 0.02 0.01 0.01 0.00 0.00 0.00
0.00 0.00 0.00 0.00 0.01 0.01 0.09 0.11 0.12 0.28 0.34 0.01 0.00 0.00 0.00 0.00 0.00 0.00 0.00 0.00 0.00 0.00 0.00 0.00 0.00 0.00 0.00 0.00 0.00 0.00 0.00 0.00 0.00 0.00 0.00 0.00 0.05 0.18 0.24 0.18 0.10 0.02 0.01 0.05 0.06 0.03 0.00 0.00 0.00
0.00 0.00 0.00 0.01 0.01 0.00 0.02 0.16 0.24 0.23 0.14 0.01 0.00 0.00 0.00 0.00 0.00 0.00 0.00 0.00 0.00 0.00 0.00 0.00 0.00 0.00 0.00 0.00 0.00 0.00 0.00 0.00 0.00 0.00 0.00 0.00 0.04 0.16 0.25 0.26 0.29 0.07 0.06 0.05 0.04 0.01 0.00 0.00 0.00
0.00 0.00 0.00 0.00 0.01 0.01 0.03 0.07 0.45 0.42 0.94 0.19 0.02 0.01 0.00 0.00 0.00 0.00 0.00 0.00 0.00 0.00 0.00 0.00 0.00 0.00 0.00 0.00 0.00 0.00 0.00 0.00 0.00 0.00 0.00 0.01 0.03 0.10 0.19 0.17 0.17 0.15 0.07 0.05 0.00 0.00 0.00 0.00 0.00
0.00 0.00 0.00 0.00 0.02 0.02 0.04 0.04 0.49 0.15 0.63 0.56 0.05 0.01 0.03 0.00 0.00 0.00 0.00 0.00 0.00 0.00 0.00 0.00 0.00 0.00 0.00 0.00 0.00 0.00 0.00 0.00 0.01 0.00 0.02 0.02 0.01 0.05 0.10 0.12 0.12 0.14 0.18 0.14 0.02 0.00 0.00 0.00 0.00
0.00 0.00 0.00 0.00 0.00 0.01 0.06 0.06 0.14 0.17 0.06 0.18 0.10 0.03 0.04 0.00 0.00 0.00 0.00 0.00 0.00 0.00 0.00 0.00 0.00 0.00 0.00 0.00 0.00 0.00 0.00 0.00 0.02 0.00 0.02 0.01 0.00 0.00 0.01 0.08 0.10 0.15 0.14 0.12 0.08 0.05 0.00 0.00 0.00
0.00 0.00 0.00 0.00 0.00 0.01 0.03 0.07 0.06 0.20 0.20 0.16 0.17 0.02 0.01 0.00 0.00 0.00 0.00 0.00 0.00 0.00 0.00 0.00 0.00 0.00 0.00 0.00 0.00 0.01 0.01 0.01 0.00 0.03 0.01 0.00 0.00 0.00 0.02 0.06 0.13 0.15 0.22 0.11 0.07 0.04 0.01 0.00 0.00
0.00 0.00 0.00 0.00 0.00 0.00 0.00 0.01 0.01 0.09 0.32 0.56 0.29 0.05 0.01 0.00 0.00 0.00 0.00 0.00 0.00 0.00 0.00 0.00 0.00 0.00 0.00 0.00 0.00 0.00 0.00 0.00 0.00 0.00 0.00 0.00 0.00 0.00 0.00 0.05 0.09 0.13 0.20 0.17 0.07 0.02 0.02 0.01 0.00
0.00 0.00 0.00 0.00 0.00 0.00 0.00 0.00 0.00 0.01 0.24 0.60 0.42 0.14 0.00 0.00 0.00 0.00 0.00 0.00 0.00 0.00 0.00 0.00 0.00 0.00 0.00 0.00 0.00 0.00 0.00 0.00 0.00 0.00 0.00 0.01 0.01 0.00 0.00 0.01 0.06 0.10 0.14 0.16 0.14 0.15 0.05 0.02 0.00
0.00 0.00 0.00 0.00 0.00 0.00 0.00 0.00 0.00 0.00 0.00 0.11 0.17 0.08 0.00 0.00 0.00 0.00 0.00 0.00 0.00 0.00 0.00 0.00 0.00 0.00 0.00 0.00 0.00 0.00 0.00 0.00 0.00 0.00 0.00 0.00 0.01 0.00 0.01 0.03 0.06 0.06 0.04 0.08 0.12 0.11 0.05 0.01 0.01
0.00 0.00 0.00 0.00 0.00 0.00 0.00 0.00 0.00 0.00 0.00 0.01 0.10 0.23 0.02 0.00 0.00 0.00 0.00 0.00 0.00 0.00 0.00 0.00 0.00 0.00 0.00 0.00 0.00 0.00 0.00 0.00 0.00 0.01 0.00 0.00 0.00 0.00 0.00 0.00 0.03 0.03 0.03 0.05 0.09 0.11 0.10 0.01 0.00
0.00 0.00 0.00 0.00 0.00 0.00 0.00 0.00 0.00 0.00 0.00 0.00 0.03 0.13 0.12 0.04 0.00 0.00 0.00 0.00 0.00 0.00 0.00 0.00 0.00 0.00 0.00 0.00 0.00 0.00 0.00 0.00 0.00 0.00 0.00 0.00 0.00 0.00 0.00 0.00 0.00 0.01 0.03 0.04 0.06 0.03 0.02 0.02 0.00
0.00 0.00 0.00 0.00 0.00 0.00 0.00 0.00 0.00 0.00 0.00 0.00 0.00 0.08 0.16 0.19 0.08 0.02 0.00 0.00 0.00 0.00 0.00 0.00 0.00 0.00 0.00 0.00 0.00 0.00 0.00 0.00 0.00 0.00 0.00 0.00 0.00 0.00 0.00 0.00 0.00 0.00 0.00 0.01 0.03 0.01 0.04 0.07 0.03
0.00 0.00 0.00 0.00 0.00 0.00 0.00 0.00 0.00 0.00 0.00 0.00 0.00 0.00 0.06 0.28 0.47 0.18 0.09 0.02 0.01 0.00 0.00 0.00 0.00 0.00 0.00 0.00 0.00 0.00 0.00 0.00 0.00 0.00 0.00 0.00 0.00 0.00 0.00 0.00 0.00 0.00 0.00 0.00 0.01 0.00 0.01 0.02 0.02
0.00 0.00 0.00 0.00 0.00 0.00 0.00 0.00 0.00 0.00 0.00 0.00 0.00 0.00 0.01 0.07 0.34 0.51 0.33 0.04 0.02 0.00 0.00 0.00 0.00 0.00 0.00 0.00 0.00 0.00 0.00 0.00 0.00 0.00 0.00 0.00 0.00 0.00 0.00 0.00 0.00 0.00 0.00 0.00 0.00 0.00 0.01 0.01 0.01
0.00 0.00 0.00 0.00 0.00 0.00 0.00 0.00 0.00 0.00 0.00 0.00 0.00 0.00 0.00 0.01 0.09 0.31 0.51 0.12 0.02 0.00 0.00 0.00 0.00 0.00 0.00 0.00 0.00 0.00 0.00 0.00 0.00 0.00 0.00 0.00 0.00 0.00 0.00 0.00 0.00 0.00 0.00 0.00 0.00 0.00 0.00 0.00 0.00